Погода в Отказном

Россия / Ставропольский край     44°19′25″N   43°51′23″E
темп.,
°C
ветер,
м/с
пор.,
м/с
влажн.,
%
обл.,
%
осадки,
мм/ч
давл.,
гПа
погр.,
м
31 июля, сб
сб3100:00+21юв22552 0.0 101021
03:00+19ю22535 0.0 101012
06:00+20св005750 0.0 101011
09:00+25св224667 0.0 1010442
12:00+30ссв333210 0.0 10091511
15:00+32с23285 0.0 10082038
18:00+31з22342 0.0 100859
21:00+24зюз334226 0.0 101029
1 августа, вс
вс100:00+22з12448 0.0 101011
03:00+21зюз22475 0.0 101019
06:00+22ссз11545 0.0 101117
09:00+28с11375 0.0 1011488
12:00+33св22285 0.0 10101702
15:00+34в33253 0.0 10092481
18:00+33юв343299 0.0 1009160
21:00+26юз3454100 0.0 101052
2 августа, пн
пн200:00+24в1159100 0.0 101011
03:00+23з2261100 0.0 101011
06:00+23зсз226366 0.0 101137
09:00+29ссв114451 0.0 1011666
12:00+34всв22285 0.0 10101623
15:00+35всв322262 0.0 10092314
18:00+33вюв2230100 0.0 100952
21:00+26ююз48591 0.1 1010129
3 августа, вт
вт300:00+25ююз22610 0.0 100923
03:00+23сз11620 0.0 101011
06:00+23з24590 0.0 101184
09:00+31сз34380 0.0 1011688
12:00+35ссз32250 0.0 10102106
15:00+37с32170 0.0 10092673
18:00+35сз12220 0.0 100920
21:00+27з33380 0.0 101017
4 августа, ср
ср400:00+26з33470 0.0 101126
03:00+25з513510 0.0 1011240
06:00+25зсз511490 0.0 1013241
09:00+31сз68370 0.0 1013717
12:00+35ссз55300 0.0 10121587
15:00+37с43250 0.0 10113131
18:00+34ссв46294 0.0 1011434
21:00+30ссв3535100 0.0 101281